Year,Month,Day,Hour,Minute,Value (Times are PST for barometer in hPa)
2014,05,08,00,00,1004.20
2014,05,08,00,04,1004.20
2014,05,08,00,05,1004.20
2014,05,08,00,06,1004.20
2014,05,08,00,07,1004.20
2014,05,08,00,08,1004.20
2014,05,08,00,09,1004.20
2014,05,08,00,10,1004.20
2014,05,08,00,11,1004.20
2014,05,08,00,12,1004.20
2014,05,08,00,13,1004.20
2014,05,08,00,14,1004.20
2014,05,08,00,15,1004.20
2014,05,08,00,19,1004.10
2014,05,08,00,20,1004.10
2014,05,08,00,21,1004.10
2014,05,08,00,22,1004.10
2014,05,08,00,23,1004.10
2014,05,08,00,24,1004.10
2014,05,08,00,25,1004.10
2014,05,08,00,26,1004.10
2014,05,08,00,27,1004.10
2014,05,08,00,28,1004.10
2014,05,08,00,29,1004.10
2014,05,08,00,30,1004.10
2014,05,08,00,34,1004.00
2014,05,08,00,35,1004.00
2014,05,08,00,36,1004.00
2014,05,08,00,37,1004.00
2014,05,08,00,38,1004.00
2014,05,08,00,39,1004.00
2014,05,08,00,40,1004.00
2014,05,08,00,41,1004.00
2014,05,08,00,42,1004.00
2014,05,08,00,43,1004.00
2014,05,08,00,44,1004.00
2014,05,08,00,45,1004.00
2014,05,08,00,49,1003.90
2014,05,08,00,50,1003.90
2014,05,08,00,51,1003.90
2014,05,08,00,52,1003.90
2014,05,08,00,53,1003.90
2014,05,08,00,54,1003.90
2014,05,08,00,55,1003.90
2014,05,08,00,56,1003.90
2014,05,08,00,57,1003.90
2014,05,08,00,58,1003.90
2014,05,08,00,59,1003.90
2014,05,08,01,00,1003.90
2014,05,08,01,04,1003.90
2014,05,08,01,05,1003.90
2014,05,08,01,06,1003.90
2014,05,08,01,07,1003.90
2014,05,08,01,08,1003.90
2014,05,08,01,09,1003.90
2014,05,08,01,10,1003.90
2014,05,08,01,11,1003.90
2014,05,08,01,12,1003.90
2014,05,08,01,13,1003.90
2014,05,08,01,14,1003.90
2014,05,08,01,15,1003.90
2014,05,08,01,19,1003.80
2014,05,08,01,20,1003.80
2014,05,08,01,21,1003.80
2014,05,08,01,22,1003.80
2014,05,08,01,23,1003.80
2014,05,08,01,24,1003.80
2014,05,08,01,25,1003.80
2014,05,08,01,26,1003.80
2014,05,08,01,27,1003.80
2014,05,08,01,28,1003.80
2014,05,08,01,29,1003.80
2014,05,08,01,30,1003.80
2014,05,08,01,34,1003.70
2014,05,08,01,35,1003.70
2014,05,08,01,36,1003.70
2014,05,08,01,37,1003.70
2014,05,08,01,38,1003.70
2014,05,08,01,39,1003.70
2014,05,08,01,40,1003.70
2014,05,08,01,41,1003.70
2014,05,08,01,42,1003.70
2014,05,08,01,43,1003.70
2014,05,08,01,44,1003.70
2014,05,08,01,45,1003.70
2014,05,08,01,49,1003.60
2014,05,08,01,50,1003.60
2014,05,08,01,51,1003.60
2014,05,08,01,52,1003.60
2014,05,08,01,53,1003.60
2014,05,08,01,54,1003.60
2014,05,08,01,55,1003.60
2014,05,08,01,56,1003.60
2014,05,08,01,57,1003.60
2014,05,08,01,58,1003.60
2014,05,08,01,59,1003.60
2014,05,08,02,00,1003.60
2014,05,08,02,04,1003.50
2014,05,08,02,05,1003.50
2014,05,08,02,06,1003.50
2014,05,08,02,07,1003.50
2014,05,08,02,08,1003.50
2014,05,08,02,09,1003.50
2014,05,08,02,10,1003.50
2014,05,08,02,11,1003.50
2014,05,08,02,12,1003.50
2014,05,08,02,13,1003.50
2014,05,08,02,14,1003.50
2014,05,08,02,15,1003.50
2014,05,08,02,19,1003.40
2014,05,08,02,20,1003.40
2014,05,08,02,21,1003.40
2014,05,08,02,22,1003.40
2014,05,08,02,23,1003.40
2014,05,08,02,24,1003.40
2014,05,08,02,25,1003.40
2014,05,08,02,26,1003.40
2014,05,08,02,27,1003.40
2014,05,08,02,28,1003.40
2014,05,08,02,29,1003.40
2014,05,08,02,30,1003.40
2014,05,08,02,34,1003.30
2014,05,08,02,35,1003.30
2014,05,08,02,36,1003.30
2014,05,08,02,37,1003.30
2014,05,08,02,38,1003.30
2014,05,08,02,39,1003.30
2014,05,08,02,40,1003.30
2014,05,08,02,41,1003.30
2014,05,08,02,42,1003.30
2014,05,08,02,43,1003.30
2014,05,08,02,44,1003.30
2014,05,08,02,45,1003.30
2014,05,08,02,49,1003.20
2014,05,08,02,50,1003.20
2014,05,08,02,51,1003.20
2014,05,08,02,52,1003.20
2014,05,08,02,53,1003.20
2014,05,08,02,54,1003.20
2014,05,08,02,55,1003.20
2014,05,08,02,56,1003.20
2014,05,08,02,57,1003.20
2014,05,08,02,58,1003.20
2014,05,08,02,59,1003.20
2014,05,08,03,00,1003.20
2014,05,08,03,04,1003.10
2014,05,08,03,05,1003.10
2014,05,08,03,06,1003.10
2014,05,08,03,07,1003.10
2014,05,08,03,08,1003.10
2014,05,08,03,09,1003.10
2014,05,08,03,10,1003.10
2014,05,08,03,11,1003.10
2014,05,08,03,12,1003.10
2014,05,08,03,13,1003.10
2014,05,08,03,14,1003.10
2014,05,08,03,15,1003.10
2014,05,08,03,19,1003.00
2014,05,08,03,20,1003.00
2014,05,08,03,21,1003.00
2014,05,08,03,22,1003.00
2014,05,08,03,23,1003.00
2014,05,08,03,24,1003.00
2014,05,08,03,25,1003.00
2014,05,08,03,26,1003.00
2014,05,08,03,27,1003.00
2014,05,08,03,28,1003.00
2014,05,08,03,29,1003.00
2014,05,08,03,30,1003.00
2014,05,08,03,34,1002.70
2014,05,08,03,35,1002.70
2014,05,08,03,36,1002.70
2014,05,08,03,37,1002.70
2014,05,08,03,38,1002.70
2014,05,08,03,39,1002.70
2014,05,08,03,40,1002.70
2014,05,08,03,41,1002.70
2014,05,08,03,42,1002.70
2014,05,08,03,43,1002.70
2014,05,08,03,44,1002.70
2014,05,08,03,45,1002.70
2014,05,08,03,49,1002.50
2014,05,08,03,50,1002.50
2014,05,08,03,51,1002.50
2014,05,08,03,52,1002.50
2014,05,08,03,53,1002.50
2014,05,08,03,54,1002.50
2014,05,08,03,55,1002.50
2014,05,08,03,56,1002.50
2014,05,08,03,57,1002.50
2014,05,08,03,58,1002.50
2014,05,08,03,59,1002.50
2014,05,08,04,00,1002.50
2014,05,08,04,04,1002.40
2014,05,08,04,05,1002.40
2014,05,08,04,06,1002.40
2014,05,08,04,07,1002.40
2014,05,08,04,08,1002.40
2014,05,08,04,09,1002.40
2014,05,08,04,10,1002.40
2014,05,08,04,11,1002.40
2014,05,08,04,12,1002.40
2014,05,08,04,13,1002.40
2014,05,08,04,14,1002.40
2014,05,08,04,15,1002.40
2014,05,08,04,19,1002.20
2014,05,08,04,20,1002.20
2014,05,08,04,21,1002.20
2014,05,08,04,22,1002.20
2014,05,08,04,23,1002.20
2014,05,08,04,24,1002.20
2014,05,08,04,25,1002.20
2014,05,08,04,26,1002.20
2014,05,08,04,27,1002.20
2014,05,08,04,28,1002.20
2014,05,08,04,29,1002.20
2014,05,08,04,30,1002.20
2014,05,08,04,34,1002.00
2014,05,08,04,35,1002.00
2014,05,08,04,36,1002.00
2014,05,08,04,37,1002.00
2014,05,08,04,38,1002.00
2014,05,08,04,39,1002.00
2014,05,08,04,40,1002.00
2014,05,08,04,41,1002.00
2014,05,08,04,42,1002.00
2014,05,08,04,43,1002.00
2014,05,08,04,44,1002.00
2014,05,08,04,45,1002.00
2014,05,08,04,49,1001.90
2014,05,08,04,50,1001.90
2014,05,08,04,51,1001.90
2014,05,08,04,52,1001.90
2014,05,08,04,53,1001.90
2014,05,08,04,54,1001.90
2014,05,08,04,55,1001.90
2014,05,08,04,56,1001.90
2014,05,08,04,57,1001.90
2014,05,08,04,58,1001.90
2014,05,08,04,59,1001.90
2014,05,08,05,00,1001.90
2014,05,08,05,04,1001.70
2014,05,08,05,05,1001.70
2014,05,08,05,06,1001.70
2014,05,08,05,07,1001.70
2014,05,08,05,08,1001.70
2014,05,08,05,09,1001.70
2014,05,08,05,10,1001.70
2014,05,08,05,11,1001.70
2014,05,08,05,12,1001.70
2014,05,08,05,13,1001.70
2014,05,08,05,14,1001.70
2014,05,08,05,15,1001.70
2014,05,08,05,19,1001.60
2014,05,08,05,20,1001.60
2014,05,08,05,21,1001.60
2014,05,08,05,22,1001.60
2014,05,08,05,23,1001.60
2014,05,08,05,24,1001.60
2014,05,08,05,25,1001.60
2014,05,08,05,26,1001.60
2014,05,08,05,27,1001.60
2014,05,08,05,28,1001.60
2014,05,08,05,29,1001.60
2014,05,08,05,30,1001.60
2014,05,08,05,34,1001.30
2014,05,08,05,35,1001.30
2014,05,08,05,36,1001.30
2014,05,08,05,37,1001.30
2014,05,08,05,38,1001.30
2014,05,08,05,39,1001.30
2014,05,08,05,40,1001.30
2014,05,08,05,41,1001.30
2014,05,08,05,42,1001.30
2014,05,08,05,43,1001.30
2014,05,08,05,44,1001.30
2014,05,08,05,45,1001.30
2014,05,08,05,49,1000.70
2014,05,08,05,50,1000.70
2014,05,08,05,51,1000.70
2014,05,08,05,52,1000.70
2014,05,08,05,53,1000.70
2014,05,08,05,54,1000.70
2014,05,08,05,55,1000.70
2014,05,08,05,56,1000.70
2014,05,08,05,57,1000.70
2014,05,08,05,58,1000.70
2014,05,08,05,59,1000.70
2014,05,08,06,00,1000.70
2014,05,08,06,04,1000.70
2014,05,08,06,05,1000.70
2014,05,08,06,06,1000.70
2014,05,08,06,07,1000.70
2014,05,08,06,08,1000.70
2014,05,08,06,09,1000.70
2014,05,08,06,10,1000.70
2014,05,08,06,11,1000.70
2014,05,08,06,12,1000.70
2014,05,08,06,13,1000.70
2014,05,08,06,14,1000.70
2014,05,08,06,15,1000.70
2014,05,08,06,19,1000.40
2014,05,08,06,20,1000.40
2014,05,08,06,21,1000.40
2014,05,08,06,22,1000.40
2014,05,08,06,23,1000.40
2014,05,08,06,24,1000.40
2014,05,08,06,25,1000.40
2014,05,08,06,26,1000.40
2014,05,08,06,27,1000.40
2014,05,08,06,28,1000.40
2014,05,08,06,29,1000.40
2014,05,08,06,30,1000.40
2014,05,08,06,34,1000.40
2014,05,08,06,35,1000.40
2014,05,08,06,36,1000.40
2014,05,08,06,37,1000.40
2014,05,08,06,38,1000.40
2014,05,08,06,39,1000.40
2014,05,08,06,40,1000.40
2014,05,08,06,41,1000.40
2014,05,08,06,42,1000.40
2014,05,08,06,43,1000.40
2014,05,08,06,44,1000.40
2014,05,08,06,45,1000.40
2014,05,08,06,49,1000.20
2014,05,08,06,50,1000.20
2014,05,08,06,51,1000.20
2014,05,08,06,52,1000.20
2014,05,08,06,53,1000.20
2014,05,08,06,54,1000.20
2014,05,08,06,55,1000.20
2014,05,08,06,56,1000.20
2014,05,08,06,57,1000.20
2014,05,08,06,58,1000.20
2014,05,08,06,59,1000.20
2014,05,08,07,00,1000.20
2014,05,08,07,04,1000.00
2014,05,08,07,05,1000.00
2014,05,08,07,06,1000.00
2014,05,08,07,07,1000.00
2014,05,08,07,08,1000.00
2014,05,08,07,09,1000.00
2014,05,08,07,10,1000.00
2014,05,08,07,11,1000.00
2014,05,08,07,12,1000.00
2014,05,08,07,13,1000.00
2014,05,08,07,14,1000.00
2014,05,08,07,15,1000.00
2014,05,08,07,19,1000.00
2014,05,08,07,20,1000.00
2014,05,08,07,21,1000.00
2014,05,08,07,22,1000.00
2014,05,08,07,23,1000.00
2014,05,08,07,24,1000.00
2014,05,08,07,25,1000.00
2014,05,08,07,26,1000.00
2014,05,08,07,27,1000.00
2014,05,08,07,28,1000.00
2014,05,08,07,29,1000.00
2014,05,08,07,30,1000.00
2014,05,08,07,34,1000.10
2014,05,08,07,35,1000.10
2014,05,08,07,36,1000.10
2014,05,08,07,37,1000.10
2014,05,08,07,38,1000.10
2014,05,08,07,39,1000.10
2014,05,08,07,40,1000.10
2014,05,08,07,41,1000.10
2014,05,08,07,42,1000.10
2014,05,08,07,43,1000.10
2014,05,08,07,44,1000.10
2014,05,08,07,45,1000.10
2014,05,08,07,49,1000.00
2014,05,08,07,50,1000.00
2014,05,08,07,51,1000.00
2014,05,08,07,52,1000.00
2014,05,08,07,53,1000.00
2014,05,08,07,54,1000.00
2014,05,08,07,55,1000.00
2014,05,08,07,56,1000.00
2014,05,08,07,57,1000.00
2014,05,08,07,58,1000.00
2014,05,08,07,59,1000.00
2014,05,08,08,00,1000.00
2014,05,08,08,04,1000.00
2014,05,08,08,05,1000.00
2014,05,08,08,06,1000.00
2014,05,08,08,07,1000.00
2014,05,08,08,08,1000.00
2014,05,08,08,09,1000.00
2014,05,08,08,10,1000.00
2014,05,08,08,11,1000.00
2014,05,08,08,12,1000.00
2014,05,08,08,13,1000.00
2014,05,08,08,14,1000.00
2014,05,08,08,15,1000.00
2014,05,08,08,19,999.70
2014,05,08,08,20,999.70
2014,05,08,08,21,999.70
2014,05,08,08,22,999.70
2014,05,08,08,23,999.70
2014,05,08,08,24,999.70
2014,05,08,08,25,999.70
2014,05,08,08,26,999.70
2014,05,08,08,27,999.70
2014,05,08,08,28,999.70
2014,05,08,08,29,999.70
2014,05,08,08,30,999.70
2014,05,08,08,34,999.80
2014,05,08,08,35,999.80
2014,05,08,08,36,999.80
2014,05,08,08,37,999.80
2014,05,08,08,38,999.80
2014,05,08,08,39,999.80
2014,05,08,08,40,999.80
2014,05,08,08,41,999.80
2014,05,08,08,42,999.80
2014,05,08,08,43,999.80
2014,05,08,08,44,999.80
2014,05,08,08,45,999.80
2014,05,08,08,49,999.70
2014,05,08,08,50,999.70
2014,05,08,08,51,999.70
2014,05,08,08,52,999.70
2014,05,08,08,53,999.70
2014,05,08,08,54,999.70
2014,05,08,08,55,999.70
2014,05,08,08,56,999.70
2014,05,08,08,57,999.70
2014,05,08,08,58,999.70
2014,05,08,08,59,999.70
2014,05,08,09,00,999.70
2014,05,08,09,04,999.90
2014,05,08,09,05,999.90
2014,05,08,09,06,999.90
2014,05,08,09,07,999.90
2014,05,08,09,08,999.90
2014,05,08,09,09,999.90
2014,05,08,09,10,999.90
2014,05,08,09,11,999.90
2014,05,08,09,12,999.90
2014,05,08,09,13,999.90
2014,05,08,09,14,999.90
2014,05,08,09,15,999.90
2014,05,08,09,19,999.80
2014,05,08,09,20,999.80
2014,05,08,09,21,999.80
2014,05,08,09,22,999.80
2014,05,08,09,23,999.80
2014,05,08,09,24,999.80
2014,05,08,09,25,999.80
2014,05,08,09,26,999.80
2014,05,08,09,27,999.80
2014,05,08,09,28,999.80
2014,05,08,09,29,999.80
2014,05,08,09,30,999.80
2014,05,08,09,34,999.70
2014,05,08,09,35,999.70
2014,05,08,09,36,999.70
2014,05,08,09,37,999.70
2014,05,08,09,38,999.70
2014,05,08,09,39,999.70
2014,05,08,09,40,999.70
2014,05,08,09,41,999.70
2014,05,08,09,42,999.70
2014,05,08,09,43,999.70
2014,05,08,09,44,999.70
2014,05,08,09,45,999.70
2014,05,08,09,49,999.30
2014,05,08,09,50,999.30
2014,05,08,09,51,999.30
2014,05,08,09,52,999.30
2014,05,08,09,53,999.30
2014,05,08,09,54,999.30
2014,05,08,09,55,999.30
2014,05,08,09,56,999.30
2014,05,08,09,57,999.30
2014,05,08,09,58,999.30
2014,05,08,09,59,999.30
2014,05,08,10,00,999.30
2014,05,08,10,04,999.50
2014,05,08,10,05,999.50
2014,05,08,10,06,999.50
2014,05,08,10,07,999.50
2014,05,08,10,08,999.50
2014,05,08,10,09,999.50
2014,05,08,10,10,999.50
2014,05,08,10,11,999.50
2014,05,08,10,12,999.50
2014,05,08,10,13,999.50
2014,05,08,10,14,999.50
2014,05,08,10,15,999.50
2014,05,08,10,19,999.20
2014,05,08,10,20,999.20
2014,05,08,10,21,999.20
2014,05,08,10,22,999.20
2014,05,08,10,23,999.20
2014,05,08,10,24,999.20
2014,05,08,10,25,999.20
2014,05,08,10,26,999.20
2014,05,08,10,27,999.20
2014,05,08,10,28,999.20
2014,05,08,10,29,999.20
2014,05,08,10,30,999.20
2014,05,08,10,34,999.30
2014,05,08,10,35,999.30
2014,05,08,10,36,999.30
2014,05,08,10,37,999.30
2014,05,08,10,38,999.30
2014,05,08,10,39,999.30
2014,05,08,10,40,999.30
2014,05,08,10,41,999.30
2014,05,08,10,42,999.30
2014,05,08,10,43,999.30
2014,05,08,10,44,999.30
2014,05,08,10,45,999.30
2014,05,08,10,49,999.10
2014,05,08,10,50,999.10
2014,05,08,10,51,999.10
2014,05,08,10,52,999.10
2014,05,08,10,53,999.10
2014,05,08,10,54,999.10
2014,05,08,10,55,999.10
2014,05,08,10,56,999.10
2014,05,08,10,57,999.10
2014,05,08,10,58,999.10
2014,05,08,10,59,999.10
2014,05,08,11,00,999.10
2014,05,08,11,04,999.00
2014,05,08,11,05,999.00
2014,05,08,11,06,999.00
2014,05,08,11,07,999.00
2014,05,08,11,08,999.00
2014,05,08,11,09,999.00
2014,05,08,11,10,999.00
2014,05,08,11,11,999.00
2014,05,08,11,12,999.00
2014,05,08,11,13,999.00
2014,05,08,11,14,999.00
2014,05,08,11,15,999.00
2014,05,08,11,19,999.10
2014,05,08,11,20,999.10
2014,05,08,11,21,999.10
2014,05,08,11,22,999.10
2014,05,08,11,23,999.10
2014,05,08,11,24,999.10
2014,05,08,11,25,999.10
2014,05,08,11,26,999.10
2014,05,08,11,27,999.10
2014,05,08,11,28,999.10
2014,05,08,11,29,999.10
2014,05,08,11,30,999.10
2014,05,08,11,34,999.00
2014,05,08,11,35,999.00
2014,05,08,11,36,999.00
2014,05,08,11,37,999.00
2014,05,08,11,38,999.00
2014,05,08,11,39,999.00
2014,05,08,11,40,999.00
2014,05,08,11,41,999.00
2014,05,08,11,42,999.00
2014,05,08,11,43,999.00
2014,05,08,11,44,999.00
2014,05,08,11,45,999.00
2014,05,08,11,49,999.10
2014,05,08,11,50,999.10
2014,05,08,11,51,999.10
2014,05,08,11,52,999.10
2014,05,08,11,53,999.10
2014,05,08,11,54,999.10
2014,05,08,11,55,999.10
2014,05,08,11,56,999.10
2014,05,08,11,57,999.10
2014,05,08,11,58,999.10
2014,05,08,11,59,999.10
2014,05,08,12,00,999.10
2014,05,08,12,04,999.00
2014,05,08,12,05,999.00
2014,05,08,12,06,999.00
2014,05,08,12,07,999.00
2014,05,08,12,08,999.00
2014,05,08,12,09,999.00
2014,05,08,12,10,999.00
2014,05,08,12,11,999.00
2014,05,08,12,12,999.00
2014,05,08,12,13,999.00
2014,05,08,12,14,999.00
2014,05,08,12,15,999.00
2014,05,08,12,19,998.70
2014,05,08,12,20,998.70
2014,05,08,12,21,998.70
2014,05,08,12,22,998.70
2014,05,08,12,23,998.70
2014,05,08,12,24,998.70
2014,05,08,12,25,998.70
2014,05,08,12,26,998.70
2014,05,08,12,27,998.70
2014,05,08,12,28,998.70
2014,05,08,12,29,998.70
2014,05,08,12,30,998.70
2014,05,08,12,34,998.60
2014,05,08,12,35,998.60
2014,05,08,12,36,998.60
2014,05,08,12,37,998.60
2014,05,08,12,38,998.60
2014,05,08,12,39,998.60
2014,05,08,12,40,998.60
2014,05,08,12,41,998.60
2014,05,08,12,42,998.60
2014,05,08,12,43,998.60
2014,05,08,12,44,998.60
2014,05,08,12,45,998.60
2014,05,08,12,49,998.60
2014,05,08,12,50,998.60
2014,05,08,12,51,998.60
2014,05,08,12,52,998.60
2014,05,08,12,53,998.60
2014,05,08,12,54,998.60
2014,05,08,12,55,998.60
2014,05,08,12,56,998.60
2014,05,08,12,57,998.60
2014,05,08,12,58,998.60
2014,05,08,12,59,998.60
2014,05,08,13,00,998.60
2014,05,08,13,04,998.20
2014,05,08,13,05,998.20
2014,05,08,13,06,998.20
2014,05,08,13,07,998.20
2014,05,08,13,08,998.20
2014,05,08,13,09,998.20
2014,05,08,13,10,998.20
2014,05,08,13,11,998.20
2014,05,08,13,12,998.20
2014,05,08,13,13,998.20
2014,05,08,13,14,998.20
2014,05,08,13,15,998.20
2014,05,08,13,19,998.10
2014,05,08,13,20,998.10
2014,05,08,13,21,998.10
2014,05,08,13,22,998.10
2014,05,08,13,23,998.10
2014,05,08,13,24,998.10
2014,05,08,13,25,998.10
2014,05,08,13,26,998.10
2014,05,08,13,27,998.10
2014,05,08,13,28,998.10
2014,05,08,13,29,998.10
2014,05,08,13,30,998.10
2014,05,08,13,34,998.00
2014,05,08,13,35,998.00
2014,05,08,13,36,998.00
2014,05,08,13,37,998.00
2014,05,08,13,38,998.00
2014,05,08,13,39,998.00
2014,05,08,13,40,998.00
2014,05,08,13,41,998.00
2014,05,08,13,42,998.00
2014,05,08,13,43,998.00
2014,05,08,13,44,998.00
2014,05,08,13,45,998.00
2014,05,08,13,49,998.00
2014,05,08,13,50,998.00
2014,05,08,13,51,998.00
2014,05,08,13,52,998.00
2014,05,08,13,53,998.00
2014,05,08,13,54,998.00
2014,05,08,13,55,998.00
2014,05,08,13,56,998.00
2014,05,08,13,57,998.00
2014,05,08,13,58,998.00
2014,05,08,13,59,998.00
2014,05,08,14,00,998.00
2014,05,08,14,04,997.80
2014,05,08,14,05,997.80
2014,05,08,14,06,997.80
2014,05,08,14,07,997.80
2014,05,08,14,08,997.80
2014,05,08,14,09,997.80
2014,05,08,14,10,997.80
2014,05,08,14,11,997.80
2014,05,08,14,12,997.80
2014,05,08,14,13,997.80
2014,05,08,14,14,997.80
2014,05,08,14,15,997.80
2014,05,08,14,19,997.60
2014,05,08,14,20,997.60
2014,05,08,14,21,997.60
2014,05,08,14,22,997.60
2014,05,08,14,23,997.60
2014,05,08,14,24,997.60
2014,05,08,14,25,997.60
2014,05,08,14,26,997.60
2014,05,08,14,27,997.60
2014,05,08,14,28,997.60
2014,05,08,14,29,997.60
2014,05,08,14,30,997.60
2014,05,08,14,34,997.60
2014,05,08,14,35,997.60
2014,05,08,14,36,997.60
2014,05,08,14,37,997.60
2014,05,08,14,38,997.60
2014,05,08,14,39,997.60
2014,05,08,14,40,997.60
2014,05,08,14,41,997.60
2014,05,08,14,42,997.60
2014,05,08,14,43,997.60
2014,05,08,14,44,997.60
2014,05,08,14,45,997.60
2014,05,08,14,49,997.60
2014,05,08,14,50,997.60
2014,05,08,14,51,997.60
2014,05,08,14,52,997.60
2014,05,08,14,53,997.60
2014,05,08,14,54,997.60
2014,05,08,14,55,997.60
2014,05,08,14,56,997.60
2014,05,08,14,57,997.60
2014,05,08,14,58,997.60
2014,05,08,14,59,997.60
2014,05,08,15,00,997.60
2014,05,08,15,04,997.50
2014,05,08,15,05,997.50
2014,05,08,15,06,997.50
2014,05,08,15,07,997.50
2014,05,08,15,08,997.50
2014,05,08,15,09,997.50
2014,05,08,15,10,997.50
2014,05,08,15,11,997.50
2014,05,08,15,12,997.50
2014,05,08,15,13,997.50
2014,05,08,15,14,997.50
2014,05,08,15,15,997.50
2014,05,08,15,19,997.30
2014,05,08,15,20,997.30
2014,05,08,15,21,997.30
2014,05,08,15,22,997.30
2014,05,08,15,23,997.30
2014,05,08,15,24,997.30
2014,05,08,15,25,997.30
2014,05,08,15,26,997.30
2014,05,08,15,27,997.30
2014,05,08,15,28,997.30
2014,05,08,15,29,997.30
2014,05,08,15,30,997.30
2014,05,08,15,34,997.30
2014,05,08,15,35,997.30
2014,05,08,15,36,997.30
2014,05,08,15,37,997.30
2014,05,08,15,38,997.30
2014,05,08,15,39,997.30
2014,05,08,15,40,997.30
2014,05,08,15,41,997.30
2014,05,08,15,42,997.30
2014,05,08,15,43,997.30
2014,05,08,15,44,997.30
2014,05,08,15,45,997.30
2014,05,08,15,49,997.10
2014,05,08,15,50,997.10
2014,05,08,15,51,997.10
2014,05,08,15,52,997.10
2014,05,08,15,53,997.10
2014,05,08,15,54,997.10
2014,05,08,15,55,997.10
2014,05,08,15,56,997.10
2014,05,08,15,57,997.10
2014,05,08,15,58,997.10
2014,05,08,15,59,997.10
2014,05,08,16,00,997.10
2014,05,08,16,04,997.00
2014,05,08,16,05,997.00
2014,05,08,16,06,997.00
2014,05,08,16,07,997.00
2014,05,08,16,08,997.00
2014,05,08,16,09,997.00
2014,05,08,16,10,997.00
2014,05,08,16,11,997.00
2014,05,08,16,12,997.00
2014,05,08,16,13,997.00
2014,05,08,16,14,997.00
2014,05,08,16,15,997.00
2014,05,08,16,19,997.00
2014,05,08,16,20,997.00
2014,05,08,16,21,997.00
2014,05,08,16,22,997.00
2014,05,08,16,23,997.00
2014,05,08,16,24,997.00
2014,05,08,16,25,997.00
2014,05,08,16,26,997.00
2014,05,08,16,27,997.00
2014,05,08,16,28,997.00
2014,05,08,16,29,997.00
2014,05,08,16,30,997.00
2014,05,08,16,34,996.90
2014,05,08,16,35,996.90
2014,05,08,16,36,996.90
2014,05,08,16,37,996.90
2014,05,08,16,38,996.90
2014,05,08,16,39,996.90
2014,05,08,16,40,996.90
2014,05,08,16,41,996.90
2014,05,08,16,42,996.90
2014,05,08,16,43,996.90
2014,05,08,16,44,996.90
2014,05,08,16,45,996.90
2014,05,08,16,49,996.90
2014,05,08,16,50,996.90
2014,05,08,16,51,996.90
2014,05,08,16,52,996.90
2014,05,08,16,53,996.90
2014,05,08,16,54,996.90
2014,05,08,16,55,996.90
2014,05,08,16,56,996.90
2014,05,08,16,57,996.90
2014,05,08,16,58,996.90
2014,05,08,16,59,996.90
2014,05,08,17,00,996.90
2014,05,08,17,04,996.90
2014,05,08,17,05,996.90
2014,05,08,17,06,996.90
2014,05,08,17,07,996.90
2014,05,08,17,08,996.90
2014,05,08,17,09,996.90
2014,05,08,17,10,996.90
2014,05,08,17,11,996.90
2014,05,08,17,12,996.90
2014,05,08,17,13,996.90
2014,05,08,17,14,996.90
2014,05,08,17,15,996.90
2014,05,08,17,19,996.90
2014,05,08,17,20,996.90
2014,05,08,17,21,996.90
2014,05,08,17,22,996.90
2014,05,08,17,23,996.90
2014,05,08,17,24,996.90
2014,05,08,17,25,996.90
2014,05,08,17,26,996.90
2014,05,08,17,27,996.90
2014,05,08,17,28,996.90
2014,05,08,17,29,996.90
2014,05,08,17,30,996.90
2014,05,08,17,34,996.70
2014,05,08,17,35,996.70
2014,05,08,17,36,996.70
2014,05,08,17,37,996.70
2014,05,08,17,38,996.70
2014,05,08,17,39,996.70
2014,05,08,17,40,996.70
2014,05,08,17,41,996.70
2014,05,08,17,42,996.70
2014,05,08,17,43,996.70
2014,05,08,17,44,996.70
2014,05,08,17,45,996.70
2014,05,08,17,49,996.50
2014,05,08,17,50,996.50
2014,05,08,17,51,996.50
2014,05,08,17,52,996.50
2014,05,08,17,53,996.50
2014,05,08,17,54,996.50
2014,05,08,17,55,996.50
2014,05,08,17,56,996.50
2014,05,08,17,57,996.50
2014,05,08,17,58,996.50
2014,05,08,17,59,996.50
2014,05,08,18,00,996.50
2014,05,08,18,04,996.50
2014,05,08,18,05,996.50
2014,05,08,18,06,996.50
2014,05,08,18,07,996.50
2014,05,08,18,08,996.50
2014,05,08,18,09,996.50
2014,05,08,18,10,996.50
2014,05,08,18,11,996.50
2014,05,08,18,12,996.50
2014,05,08,18,13,996.50
2014,05,08,18,14,996.50
2014,05,08,18,15,996.50
2014,05,08,18,19,996.30
2014,05,08,18,20,996.30
2014,05,08,18,21,996.30
2014,05,08,18,22,996.30
2014,05,08,18,23,996.30
2014,05,08,18,24,996.30
2014,05,08,18,25,996.30
2014,05,08,18,26,996.30
2014,05,08,18,27,996.30
2014,05,08,18,28,996.30
2014,05,08,18,29,996.30
2014,05,08,18,30,996.30
2014,05,08,18,34,996.20
2014,05,08,18,35,996.20
2014,05,08,18,36,996.20
2014,05,08,18,37,996.20
2014,05,08,18,38,996.20
2014,05,08,18,39,996.20
2014,05,08,18,40,996.20
2014,05,08,18,41,996.20
2014,05,08,18,42,996.20
2014,05,08,18,43,996.20
2014,05,08,18,44,996.20
2014,05,08,18,45,996.20
2014,05,08,18,49,996.20
2014,05,08,18,50,996.20
2014,05,08,18,51,996.20
2014,05,08,18,52,996.20
2014,05,08,18,53,996.20
2014,05,08,18,54,996.20
2014,05,08,18,55,996.20
2014,05,08,18,56,996.20
2014,05,08,18,57,996.20
2014,05,08,18,58,996.20
2014,05,08,18,59,996.20
2014,05,08,19,00,996.20
2014,05,08,19,04,996.10
2014,05,08,19,05,996.10
2014,05,08,19,06,996.10
2014,05,08,19,07,996.10
2014,05,08,19,08,996.10
2014,05,08,19,09,996.10
2014,05,08,19,10,996.10
2014,05,08,19,11,996.10
2014,05,08,19,12,996.10
2014,05,08,19,13,996.10
2014,05,08,19,14,996.10
2014,05,08,19,15,996.10
2014,05,08,19,19,996.10
2014,05,08,19,20,996.10
2014,05,08,19,21,996.10
2014,05,08,19,22,996.10
2014,05,08,19,23,996.10
2014,05,08,19,24,996.10
2014,05,08,19,25,996.10
2014,05,08,19,26,996.10
2014,05,08,19,27,996.10
2014,05,08,19,28,996.10
2014,05,08,19,29,996.10
2014,05,08,19,30,996.10
2014,05,08,19,34,996.00
2014,05,08,19,35,996.00
2014,05,08,19,36,996.00
2014,05,08,19,37,996.00
2014,05,08,19,38,996.00
2014,05,08,19,39,996.00
2014,05,08,19,40,996.00
2014,05,08,19,41,996.00
2014,05,08,19,42,996.00
2014,05,08,19,43,996.00
2014,05,08,19,44,996.00
2014,05,08,19,45,996.00
2014,05,08,19,49,996.00
2014,05,08,19,50,996.00
2014,05,08,19,51,996.00
2014,05,08,19,52,996.00
2014,05,08,19,53,996.00
2014,05,08,19,54,996.00
2014,05,08,19,55,996.00
2014,05,08,19,56,996.00
2014,05,08,19,57,996.00
2014,05,08,19,58,996.00
2014,05,08,19,59,996.00
2014,05,08,20,00,996.00
2014,05,08,20,04,995.90
2014,05,08,20,05,995.90
2014,05,08,20,06,995.90
2014,05,08,20,07,995.90
2014,05,08,20,08,995.90
2014,05,08,20,09,995.90
2014,05,08,20,10,995.90
2014,05,08,20,11,995.90
2014,05,08,20,12,995.90
2014,05,08,20,13,995.90
2014,05,08,20,14,995.90
2014,05,08,20,15,995.90
2014,05,08,20,19,995.80
2014,05,08,20,20,995.80
2014,05,08,20,21,995.80
2014,05,08,20,22,995.80
2014,05,08,20,23,995.80
2014,05,08,20,24,995.80
2014,05,08,20,25,995.80